Location: Coopersdale
(40.3556°N, 78.9372°W)
Time: 01:31:53
(UTC+00:00)

Tiros 1 despin weight - Pass Details

Date: 21 January 2021
Orbit: 593 x 642 km, 48.2° (Epoch: 02 March)

Event Time Altitude Azimuth Distance (km) Brightness Sun altitude
Rises 22:35:57 0° 277° (W) 2,866 ? -3.4°
Reaches altitude 10° 22:38:28 10° 288° (WNW) 1,954 ? -3.8°
Maximum altitude 22:42:29 31° 352° (N) 1,055 ? -4.5°
Drops below altitude 10° 22:46:27 10° 55° (NE) 1,934 ? -5.2°
Enters shadow 22:47:20 - 60° (ENE) 2,242 ? -5.4°
Sets 22:48:56 0° 66° (ENE) 2,832 - -5.7°
